Regional Weather Roundup
Issued by NWS Newport/Morehead, NC

Current Version | Previous Version | Text Only | Print | Product List | Glossary Off
Versions: 1 2 3 4 5 6 7 8 9 10 11 12 13 14 15 16 17 18 19 20 21 22 23 24 25 26 27 28 29 30 31 32 33 34 35 36 37 38 39 40 41 42 43 44 45 46 47 48 49 50
125 ASUS42 KMHX 171225 RWRMHX WEATHER ROUNDUP FOR EASTERN NORTH CAROLINA NATIONAL WEATHER SERVICE NEWPORT/MOREHEAD CITY NC 700 AM EST SUN DEC 17 2017 NOTE: "FAIR" INDICATES FEW OR NO CLOUDS BELOW 12,000 FEET WITH NO SIGNIFICANT WEATHER AND/OR OBSTRUCTIONS TO VISIBILITY NCZ015>017-031-032-045>047-102-103-171300- NORTH COAST CITY SKY/WX TMP DP RH WIND PRES REMARKS EDENTON NOT AVBL ELIZABETH CITY PTCLDY 31 30 96 SW3 30.31R KITTY HAWK SUNNY 36 31 82 CALM 30.29R MANTEO CLEAR 33 29 86 CALM 30.31R $$ NCZ045>047-081-094-103-104-171300- CENTRAL COAST CITY SKY/WX TMP DP RH WIND PRES REMARKS FRISCO CLEAR 36 36 100 W5 30.31R $$ NCZ095-097-098-100-101-171300- SOUTHERN COAST CITY SKY/WX TMP DP RH WIND PRES REMARKS BEAUFORT CLOUDY 32 30 92 CALM 30.32R CEDAR ISLAND NOT AVBL JACKSONVILLE CLOUDY 29 28 96 CALM 30.31R PINEY ISLAND N/A N/A N/A N/A SW5 30.32R WILMINGTON PTCLDY 31 29 92 CALM 30.33R $$ NCZ011>013-027>030-043-044-078>080-089-090>093-098-171300- COASTAL PLAIN CITY SKY/WX TMP DP RH WIND PRES REMARKS AHOSKIE CLOUDY 25 24 96 CALM 30.31R CLINTON CLOUDY 28 28 99 CALM 30.32R ELIZABETHTOWN NOT AVBL GOLDSBORO CLOUDY 28 25 86 CALM 30.29R GREENVILLE PTCLDY 28 28 100 CALM 30.31R HAVELOCK CLOUDY 29 29 100 CALM 30.33R KENANSVILLE CLOUDY 25 23 93 CALM 30.32R FOG KINSTON CLOUDY 27 25 93 CALM 30.32 NEW BERN CLOUDY 27 27 100 S3 30.33R RICHLANDS CLOUDY 26 24 92 CALM 30.32R FOG ROCKY MOUNT CLOUDY 27 27 100 S3 30.30R WASHINGTON CLOUDY 28 26 89 CALM 30.32R WHITEVILLE CLOUDY 29 28 96 CALM 30.30S $$ AMZ130-135-150-152-154-156-158-170-250-252-270-ANZ085-086-088-633-658-670-171300- MARINE OBSERVATIONS STATION/POSITION TIME TEMP WIND PRES WAVE SWELL AIR SEA DIR/SP/G HT/PER HT/PER (UTC) (F) (DEG/KT/KT) (MB) (FT/S) (FT/S) CHESAPEAKE LIGHT NOT AVBL 64 E VA BEACH 1150 51 59 290/ 8/ 10 1025.7 2/ 4 2/10 DUCK 1200 41 52 240/ 9/ 10 1025.6 2 E DUCK 1200 54 N/A 1 OREGON INLET 1200 40 45 260/ 3/ 5 1026.1 13E OREGON INLT 1148 59 N/A 2/ 3 2/ 7 HATTERAS CG 1200 46 50 280/ 7/ 8 1026.1 DIAMOND BUOY 1200 52 71 310/ 8/ 12 1026.6 CAPE LOOKOUT 1200 330/ 5/ 6 1027.0 BEAUFORT LAB 1200 41 50 340/ 3/ 5 1026.7 30 SE NEW RVR IN 1208 52 63 310/ 4/ 8 1026.9 30 SE NEW RVR IN 1200 63 N/A 2/10 27 SE WRIGHTSVLE 1208 52 62 290/ 6/ 10 1026.8 5 SE WRIGHTSVLE 1208 48 56 290/ 6/ 8 1026.2 225 S CAPE HAT 1150 63 74 360/ 4/ 6 1026.0 3/ 9 3/ 9 41 SE CHARLESTON 1200 57 72 40/ 6/ 8 1025.5 $$

USA.gov is the U.S. government's official web portal to all federal, state and local government web resources and services.